DW8692 Weather Reports


time (UTC)temp
C
wind
direction
speed
KPH
gust
KPH
rain 1hr
cm
rain 24hr
cm
rain mn
cm
humidity
%
barometer
mb
20260507160040 13 127 3.2 0.0 0.00 0.00 0.00 25 1012.0
20260507155535 13 72 1.6 0.0 0.00 0.00 0.00 26 1012.0
20260507155035 12 90 1.6 0.0 0.00 0.00 0.00 26 1012.0
20260507154540 12 85 1.6 0.0 0.00 0.00 0.00 26 1012.1
20260507153534 12 88 1.6 0.0 0.00 0.00 0.00 26 1012.1
20260507153034 12 110 1.6 0.0 0.00 0.00 0.00 26 1012.1
20260507152537 12 82 0.0 0.0 0.00 0.00 0.00 26 1012.1
20260507152033 12 121 1.6 0.0 0.00 0.00 0.00 27 1012.1
20260507151533 11 125 3.2 0.0 0.00 0.00 0.00 27 1012.1
20260507151032 11 111 3.2 0.0 0.00 0.00 0.00 28 1012.1
20260507150533 11 185 1.6 0.0 0.00 0.00 0.00 26 1012.1
20260507150032 11 186 0.0 0.0 0.00 0.00 0.00 26 1012.2
20260507145532 11 186 0.0 0.0 0.00 0.00 0.00 26 1012.2
20260507145031 11 186 1.6 0.0 0.00 0.00 0.00 27 1012.2
20260507144534 11 198 1.6 0.0 0.00 0.00 0.00 28 1012.2
20260507143531 11 199 1.6 0.0 0.00 0.00 0.00 29 1012.2
20260507143031 10 196 1.6 0.0 0.00 0.00 0.00 28 1012.3
20260507142532 10 198 1.6 0.0 0.00 0.00 0.00 29 1012.3
20260507142031 10 171 1.6 0.0 0.00 0.00 0.00 30 1012.3
20260507141531 10 155 0.0 0.0 0.00 0.00 0.00 30 1012.3
20260507141034 10 102 0.0 0.0 0.00 0.00 0.00 32 1012.2
20260507140531 9 102 0.0 0.0 0.00 0.00 0.00 32 1012.3
20260507140030 8 103 0.0 0.0 0.00 0.00 0.00 34 1012.3
20260507135530 8 103 0.0 0.0 0.00 0.00 0.00 35 1012.3
20260507135030 7 104 0.0 0.0 0.00 0.00 0.00 36 1012.2
20260507134530 6 104 0.0 0.0 0.00 0.00 0.00 36 1012.3
20260507133534 5 101 0.0 0.0 0.00 0.00 0.00 38 1012.3
20260507133030 5 104 0.0 0.0 0.00 0.00 0.00 38 1012.3
20260507132534 4 104 0.0 0.0 0.00 0.00 0.00 39 1012.3
20260507132030 3 104 0.0 0.0 0.00 0.00 0.00 40 1012.5
20260507131534 3 104 0.0 0.0 0.00 0.00 0.00 42 1012.5
20260507131032 3 104 0.0 0.0 0.00 0.00 0.00 44 1012.5
20260507130532 2 104 0.0 0.0 0.00 0.00 0.00 47 1012.5
20260507130029 2 104 0.0 0.0 0.00 0.00 0.00 50 1012.5
20260507125532 1 104 0.0 0.0 0.00 0.00 0.00 50 1012.5
20260507125029 1 104 0.0 0.0 0.00 0.00 0.00 51 1012.4
20260507124528 0 98 0.0 0.0 0.00 0.00 0.00 51 1012.4
20260507123527 0 100 0.0 0.0 0.00 0.00 0.00 51 1012.3
20260507123030 -1 100 0.0 0.0 0.00 0.00 0.00 51 1012.3
20260507122527 -1 94 0.0 0.0 0.00 0.00 0.00 50 1012.2
20260507122027 -1 94 0.0 0.0 0.00 0.00 0.00 51 1012.2
20260507121527 -1 94 0.0 0.0 0.00 0.00 0.00 52 1012.2
20260507121027 -1 94 0.0 0.0 0.00 0.00 0.00 52 1012.1
20260507120525 -2 94 0.0 0.0 0.00 0.00 0.00 53 1012.1
20260507120039 -2 94 0.0 0.0 0.00 0.00 0.00 53 1012.1
20260507115526 -2 94 0.0 0.0 0.00 0.00 0.00 53 1012.1
20260507115025 -2 94 0.0 0.0 0.00 0.00 0.00 53 1012.1
20260507114526 -2 94 0.0 0.0 0.00 0.00 0.00 53 1012.1
20260507113526 -3 95 0.0 0.0 0.00 0.00 0.00 55 1012.1
20260507113038 -3 94 0.0 0.0 0.00 0.00 0.00 54 1012.0
20260507112525 -3 94 0.0 0.0 0.00 0.00 0.00 53 1012.0
20260507112025 -2 94 0.0 0.0 0.00 0.00 0.00 54 1012.1
20260507111525 -2 94 0.0 0.0 0.00 0.00 0.00 54 1012.1
20260507111026 -3 94 0.0 0.0 0.00 0.00 0.00 54 1012.1
20260507110528 -3 94 0.0 0.0 0.00 0.00 0.00 54 1012.1
20260507110027 -3 94 0.0 0.0 0.00 0.00 0.00 53 1012.0
20260507105524 -3 94 0.0 0.0 0.00 0.00 0.00 52 1012.0
20260507105024 -2 94 0.0 0.0 0.00 0.00 0.00 53 1012.1
20260507104524 -3 94 0.0 0.0 0.00 0.00 0.00 53 1012.1
20260507103523 -2 94 0.0 0.0 0.00 0.00 0.00 51 1012.0
20260507103021 -2 94 0.0 0.0 0.00 0.00 0.00 51 1012.1
20260507102522 -2 94 0.0 0.0 0.00 0.00 0.00 50 1012.1
20260507102021 -2 94 0.0 0.0 0.00 0.00 0.00 50 1012.0
20260507101521 -2 94 0.0 0.0 0.00 0.00 0.00 51 1012.0
20260507101020 -2 94 0.0 0.0 0.00 0.00 0.00 51 1012.0
20260507100520 -2 94 0.0 0.0 0.00 0.00 0.00 50 1012.0
20260507100025 -2 94 0.0 0.0 0.00 0.00 0.00 49 1012.0
20260507095520 -1 94 0.0 0.0 0.00 0.00 0.00 49 1011.9
20260507095019 -2 94 0.0 0.0 0.00 0.00 0.00 50 1011.9
20260507094519 -2 94 0.0 0.0 0.00 0.00 0.00 50 1012.0
20260507093522 -2 94 0.0 0.0 0.00 0.00 0.00 50 1011.9
20260507093018 -2 94 0.0 0.0 0.00 0.00 0.00 50 1011.9
20260507092517 -2 94 0.0 0.0 0.00 0.00 0.00 49 1012.0
20260507092018 -1 94 0.0 0.0 0.00 0.00 0.00 48 1012.0
20260507091521 -1 94 0.0 0.0 0.00 0.00 0.00 47 1012.0
20260507091017 -1 94 0.0 0.0 0.00 0.00 0.00 48 1012.0
20260507090516 -1 94 0.0 0.0 0.00 0.00 0.00 48 1012.0
20260507090015 -1 94 0.0 0.0 0.00 0.00 0.00 47 1012.0
20260507085514 -1 94 0.0 0.0 0.00 0.00 0.00 47 1011.9
20260507085014 -1 94 0.0 0.0 0.00 0.00 0.00 46 1012.0
20260507084513 0 94 0.0 0.0 0.00 0.00 0.00 46 1012.0
20260507083511 0 94 0.0 0.0 0.00 0.00 0.00 45 1012.0
20260507083011 0 94 0.0 0.0 0.00 0.00 0.00 44 1012.0
20260507082517 0 94 0.0 0.0 0.00 0.00 0.00 43 1012.0
20260507082010 0 94 0.0 0.0 0.00 0.00 0.00 43 1012.0
20260507081511 1 94 0.0 0.0 0.00 0.00 0.00 42 1012.1
20260507081011 1 94 0.0 0.0 0.00 0.00 0.00 42 1012.1
20260507080511 0 94 0.0 0.0 0.00 0.00 0.00 43 1012.1
20260507080010 0 94 0.0 0.0 0.00 0.00 0.00 44 1012.1
20260507075510 0 94 0.0 0.0 0.00 0.00 0.00 44 1012.1
20260507075010 0 94 0.0 0.0 0.00 0.00 0.00 45 1012.1
20260507074513 0 94 0.0 0.0 0.00 0.00 0.00 44 1012.1
20260507073510 0 94 0.0 0.0 0.00 0.00 0.00 45 1012.1
20260507073010 0 94 0.0 0.0 0.00 0.00 0.00 45 1012.2
20260507072509 0 94 0.0 0.0 0.00 0.00 0.00 44 1012.0
20260507072009 0 94 0.0 0.0 0.00 0.00 0.00 44 1012.1
20260507071507 0 94 0.0 0.0 0.00 0.00 0.00 43 1012.1
20260507071007 0 94 0.0 0.0 0.00 0.00 0.00 42 1012.0
20260507070506 0 360 0.0 0.0 0.00 0.00 0.00 42 1012.1
20260507070010 0 360 0.0 0.0 0.00 0.00 0.00 42 1012.1
20260507065507 0 94 0.0 0.0 0.00 0.00 0.00 43 1012.0
20260507065003 0 94 0.0 0.0 0.00 0.00 0.00 42 1012.1
20260507064503 0 94 0.0 0.0 0.00 0.00 0.00 42 1012.1
20260507063504 1 94 0.0 0.0 0.00 0.00 0.00 42 1012.2
20260507063004 1 94 0.0 0.0 0.00 0.00 0.00 42 1012.2
20260507062502 1 94 0.0 0.0 0.00 0.00 0.00 42 1012.2
20260507062003 1 94 0.0 0.0 0.00 0.00 0.00 42 1012.1
20260507061503 1 94 1.6 0.0 0.00 0.00 0.00 41 1012.1
20260507061006 1 94 1.6 0.0 0.00 0.00 0.00 41 1012.1
20260507060502 1 94 0.0 0.0 0.00 0.00 0.00 41 1012.1
20260507060002 1 92 0.0 0.0 0.00 0.00 0.00 42 1012.1
20260507055502 1 92 1.6 0.0 0.00 0.00 0.00 41 1012.1
20260507055000 1 92 1.6 0.0 0.00 0.00 0.00 40 1012.1
20260507054600 2 92 1.6 0.0 0.00 0.00 0.00 39 1012.2
20260507053600 2 91 1.6 0.0 0.00 0.00 0.00 36 1012.2
20260507053059 3 88 3.2 0.0 0.00 0.00 0.00 36 1012.2
20260507052559 3 88 4.8 0.0 0.00 0.00 0.00 36 1012.2
20260507052059 3 88 4.8 0.0 0.00 0.00 0.00 36 1012.2
20260507051559 3 88 4.8 0.0 0.00 0.00 0.00 36 1012.3
20260507051101 3 88 4.8 0.0 0.00 0.00 0.00 36 1012.3
20260507050558 3 87 4.8 0.0 0.00 0.00 0.00 36 1012.3
20260507050059 2 84 4.8 0.0 0.00 0.00 0.00 37 1012.4
20260507045558 2 78 3.2 0.0 0.00 0.00 0.00 37 1012.4
20260507045058 2 59 3.2 0.0 0.00 0.00 0.00 35 1012.4
20260507044600 3 59 3.2 0.0 0.00 0.00 0.00 35 1012.4
20260507043558 2 59 3.2 0.0 0.00 0.00 0.00 36 1012.5
20260507043058 2 56 3.2 0.0 0.00 0.00 0.00 37 1012.5
20260507042558 2 54 4.8 0.0 0.00 0.00 0.00 37 1012.5
20260507042101 2 54 4.8 0.0 0.00 0.00 0.00 37 1012.6
20260507041601 2 54 4.8 0.0 0.00 0.00 0.00 38 1012.6
20260507041057 2 55 6.4 0.0 0.00 0.00 0.00 39 1012.6
20260507040557 1 360 3.2 0.0 0.00 0.00 0.00 41 1012.5
20260507040105 0 360 0.0 0.0 0.00 0.00 0.00 36 1012.6
20260507035553 1 285 0.0 0.0 0.00 0.00 0.00 39 1012.4
20260507035052 1 360 0.0 0.0 0.00 0.00 0.00 39 1012.4
20260507034612 1 285 0.0 0.0 0.00 0.00 0.00 38 1012.4
20260507033551 2 285 0.0 0.0 0.00 0.00 0.00 37 1012.5
20260507033104 2 285 0.0 0.0 0.00 0.00 0.00 38 1012.6
20260507032552 2 285 0.0 0.0 0.00 0.00 0.00 37 1012.5
20260507032049 2 285 0.0 0.0 0.00 0.00 0.00 37 1012.5
20260507031547 2 285 0.0 0.0 0.00 0.00 0.00 36 1012.5
20260507031046 3 285 0.0 0.0 0.00 0.00 0.00 35 1012.6
20260507030546 3 285 0.0 0.0 0.00 0.00 0.00 34 1012.6
20260507030044 3 285 0.0 0.0 0.00 0.00 0.00 34 1012.6
20260507025542 4 285 0.0 0.0 0.00 0.00 0.00 34 1012.6
20260507025041 4 285 0.0 0.0 0.00 0.00 0.00 34 1012.6
20260507024551 5 285 0.0 0.0 0.00 0.00 0.00 33 1012.6
20260507023542 6 284 0.0 0.0 0.00 0.00 0.00 31 1012.6
20260507023036 6 284 0.0 0.0 0.00 0.00 0.00 30 1012.6
20260507022535 6 285 0.0 0.0 0.00 0.00 0.00 30 1012.6
20260507022035 7 360 0.0 0.0 0.00 0.00 0.00 29 1012.6
20260507021533 8 285 1.6 0.0 0.00 0.00 0.00 28 1012.7
20260507021034 8 285 3.2 0.0 0.00 0.00 0.00 27 1012.6
20260507020530 8 289 1.6 0.0 0.00 0.00 0.00 27 1012.6
20260507020032 9 290 0.0 0.0 0.00 0.00 0.00 27 1012.6
20260507015527 10 290 0.0 0.0 0.00 0.00 0.00 26 1012.7
20260507015026 10 290 1.6 0.0 0.00 0.00 0.00 26 1012.7
20260507014526 10 290 3.2 0.0 0.00 0.00 0.00 26 1012.7
20260507013524 10 290 4.8 0.0 0.00 0.00 0.00 25 1012.8
20260507013023 11 281 6.4 0.0 0.00 0.00 0.00 25 1012.8
20260507012523 11 279 4.8 0.0 0.00 0.00 0.00 24 1012.9
20260507012021 11 290 4.8 0.0 0.00 0.00 0.00 24 1012.9
20260507011521 11 297 4.8 0.0 0.00 0.00 0.00 24 1012.8
20260507011021 11 294 6.4 0.0 0.00 0.00 0.00 23 1012.9
20260507010523 11 269 6.4 0.0 0.00 0.00 0.00 23 1012.8
20260507010029 11 293 6.4 0.0 0.00 0.00 0.00 23 1012.9
20260507005521 11 300 8.0 0.0 0.00 0.00 0.00 23 1012.9
20260507005018 11 280 8.0 0.0 0.00 0.00 0.00 23 1012.9
20260507004517 11 288 9.7 0.0 0.00 0.00 0.00 23 1013.0
20260507003518 12 279 8.0 0.0 0.00 0.00 0.00 23 1013.1
20260507003017 12 321 8.0 0.0 0.00 0.00 0.00 23 1013.1
20260507002516 12 311 9.7 0.0 0.00 0.00 0.00 23 1013.1
20260507002015 12 323 9.7 0.0 0.00 0.00 0.00 22 1013.2
20260507001516 12 286 8.0 0.0 0.00 0.00 0.00 23 1013.2
20260507001014 12 254 6.4 0.0 0.00 0.00 0.00 23 1013.2
20260507000514 12 314 6.4 0.0 0.00 0.00 0.00 23 1013.3
20260507000013 12 302 9.7 0.0 0.00 0.00 0.00 23 1013.5
20260506235513 12 293 11.3 0.0 0.00 0.00 0.00 23 1013.4
20260506235016 12 257 11.3 0.0 0.00 0.00 0.00 21 1013.4
20260506234520 12 263 8.0 0.0 0.00 0.00 0.00 22 1013.4
20260506233511 12 274 8.0 0.0 0.00 0.00 0.00 23 1013.5
20260506233011 12 300 9.7 0.0 0.00 0.00 0.00 22 1013.7
20260506232509 12 273 8.0 0.0 0.00 0.00 0.00 23 1013.6
20260506232009 12 302 9.7 0.0 0.00 0.00 0.00 23 1013.6
20260506231508 12 304 11.3 0.0 0.00 0.00 0.00 22 1013.7
20260506231008 12 273 11.3 0.0 0.00 0.00 0.00 22 1013.8
20260506230509 12 288 9.7 0.0 0.00 0.00 0.00 22 1013.7
20260506230007 12 330 8.0 0.0 0.00 0.00 0.00 22 1013.7
20260506225508 12 313 8.0 0.0 0.00 0.00 0.00 23 1013.8
20260506225007 12 250 11.3 0.0 0.00 0.00 0.00 22 1013.9
20260506224521 12 276 9.7 0.0 0.00 0.00 0.00 22 1014.0
20260506223507 12 331 6.4 0.0 0.00 0.00 0.00 23 1014.0
20260506223005 12 269 9.7 0.0 0.00 0.00 0.00 23 1014.1
20260506222505 12 271 12.9 0.0 0.00 0.00 0.00 22 1014.2
20260506222005 12 248 12.9 0.0 0.00 0.00 0.00 22 1014.2
20260506221504 12 270 11.3 0.0 0.00 0.00 0.00 22 1014.2
20260506221005 12 272 9.7 0.0 0.00 0.00 0.00 22 1014.3
20260506220502 12 249 9.7 0.0 0.00 0.00 0.00 23 1014.4
20260506220002 12 257 9.7 0.0 0.00 0.00 0.00 22 1014.4
20260506215501 12 318 11.3 0.0 0.00 0.00 0.00 23 1014.5
20260506215001 12 264 11.3 0.0 0.00 0.00 0.00 23 1014.6
20260506214501 11 313 11.3 0.0 0.00 0.00 0.00 23 1014.6
20260506213603 12 265 12.9 0.0 0.00 0.00 0.00 23 1014.8
20260506213059 12 311 11.3 0.0 0.00 0.00 0.00 22 1014.9
20260506212557 12 262 9.7 0.0 0.00 0.00 0.00 24 1014.9
20260506212057 11 284 9.7 0.0 0.00 0.00 0.00 25 1015.0
20260506211558 11 12 9.7 0.0 0.00 0.00 0.00 24 1015.1
20260506211055 11 21 12.9 0.0 0.00 0.00 0.00 24 1015.2
20260506210555 11 278 14.5 0.0 0.00 0.00 0.00 23 1015.3
20260506210054 11 355 14.5 0.0 0.00 0.00 0.00 23 1015.4
20260506205553 11 311 11.3 0.0 0.00 0.00 0.00 24 1015.4
20260506205052 11 329 11.3 0.0 0.00 0.00 0.00 24 1015.5
20260506204552 11 314 11.3 0.0 0.00 0.00 0.00 25 1015.7
20260506203554 11 275 11.3 0.0 0.00 0.00 0.00 24 1015.8
20260506203058 11 291 9.7 0.0 0.00 0.00 0.00 24 1015.8
20260506202550 11 296 8.0 0.0 0.00 0.00 0.00 24 1015.9
20260506202049 10 305 11.3 0.0 0.00 0.00 0.00 25 1016.0
20260506201549 10 322 12.9 0.0 0.00 0.00 0.00 24 1016.0
20260506201048 10 312 11.3 0.0 0.00 0.00 0.00 25 1016.1
20260506200551 10 344 12.9 0.0 0.00 0.00 0.00 24 1016.2
20260506200047 10 9 12.9 0.0 0.00 0.00 0.00 24 1016.3
20260506195546 11 298 9.7 0.0 0.00 0.00 0.00 24 1016.3
20260506195046 10 313 8.0 0.0 0.00 0.00 0.00 25 1016.5
20260506194546 10 252 11.3 0.0 0.00 0.00 0.00 24 1016.5
20260506193543 10 271 8.0 0.0 0.00 0.00 0.00 25 1016.6
20260506193049 10 343 6.4 0.0 0.00 0.00 0.00 25 1016.8
20260506192540 10 277 11.3 0.0 0.00 0.00 0.00 25 1017.0
20260506192043 10 275 12.9 0.0 0.00 0.00 0.00 25 1017.0
20260506191539 10 269 11.3 0.0 0.00 0.00 0.00 26 1017.0
20260506191040 10 24 11.3 0.0 0.00 0.00 0.00 25 1017.1
20260506190540 10 290 11.3 0.0 0.00 0.00 0.00 25 1017.2
20260506190038 10 238 9.7 0.0 0.00 0.00 0.00 25 1017.3
20260506185537 10 303 9.7 0.0 0.00 0.00 0.00 26 1017.4
20260506185036 10 277 9.7 0.0 0.00 0.00 0.00 26 1017.5
20260506184537 9 286 11.3 0.0 0.00 0.00 0.00 26 1017.5
20260506183538 9 325 14.5 0.0 0.00 0.00 0.00 26 1017.7
20260506183040 9 286 12.9 0.0 0.00 0.00 0.00 25 1017.8
20260506182534 8 313 11.3 0.0 0.00 0.00 0.00 26 1017.9
20260506182034 8 350 12.9 0.0 0.00 0.00 0.00 26 1018.0
20260506181543 8 295 11.3 0.0 0.00 0.00 0.00 26 1018.1
20260506181035 8 265 8.0 0.0 0.00 0.00 0.00 26 1018.3
20260506180534 9 251 9.7 0.0 0.00 0.00 0.00 26 1018.5
20260506180033 8 269 9.7 0.0 0.00 0.00 0.00 26 1018.5
20260506175531 8 329 9.7 0.0 0.00 0.00 0.00 27 1018.4
20260506175031 8 284 11.3 0.0 0.00 0.00 0.00 26 1018.6
20260506174531 8 302 11.3 0.0 0.00 0.00 0.00 26 1018.7
20260506173531 8 269 11.3 0.0 0.00 0.00 0.00 28 1018.8
20260506173038 8 312 11.3 0.0 0.00 0.00 0.00 26 1018.9
20260506172530 8 275 9.7 0.0 0.00 0.00 0.00 28 1018.8
20260506172029 8 289 9.7 0.0 0.00 0.00 0.00 28 1019.0
20260506171529 8 284 9.7 0.0 0.00 0.00 0.00 29 1019.1
20260506171029 7 348 9.7 0.0 0.00 0.00 0.00 29 1019.1
20260506170528 7 264 9.7 0.0 0.00 0.00 0.00 28 1019.2
20260506170027 7 271 9.7 0.0 0.00 0.00 0.00 29 1019.4
20260506165527 7 311 9.7 0.0 0.00 0.00 0.00 31 1019.4
20260506165026 7 257 11.3 0.0 0.00 0.00 0.00 31 1019.5
20260506164527 7 298 9.7 0.0 0.00 0.00 0.00 30 1019.6
20260506163525 7 299 9.7 0.0 0.00 0.00 0.00 32 1019.7
20260506163024 6 316 9.7 0.0 0.00 0.00 0.00 33 1019.7
20260506162525 6 291 9.7 0.0 0.00 0.00 0.00 32 1019.7
20260506162024 6 231 9.7 0.0 0.00 0.00 0.00 32 1019.8
20260506161524 6 258 8.0 0.0 0.00 0.00 0.00 32 1019.9
20260506161024 6 292 9.7 0.0 0.00 0.00 0.00 35 1019.9
20260506160523 6 310 9.7 0.0 0.00 0.00 0.00 33 1019.9